Starlink 6274

operational
NORAD ID: 56776 Int'l Des: 2023-078 Owner: SPXS Country: US Constellation: starlink
LEOCIRCULAR

About Starlink 6274

Description loading...

Live Position

Loading 3D Globe...

Upcoming Passes

Altitude History

Altitude vs Time

uPlot chart will show altitude changes over time

Two-Line Element Set

1 56776U 23078K 26034.47270875 -.00002152 00000-0 -17263-3 0 9990
2 56776 69.9994 50.9111 0002957 271.8322 88.2499 14.98331455148044
Epoch: Feb 3, 2026 • Age: 13 hours

Current Status

Altitude 574.1 km
Velocity 7.57 km/s
Sub-Earth Point 6.62°N, 85.12°W
Launch Date May 31, 2023
Age 2.6 years
Type internet

Technical Details

Classification Payload
Mass 305.00 kg
Dry Mass 290.00 kg
Total Mass 305.00 kg
Length 0.20 m
Diameter 2.80 m
Span 9.00 m
Shape Box + pan
Manufacturer SPXS
Bus Type Starlink
Phase Status In Orbit
Owner/State SPXS/US

Large Constellations

Loading constellations...